This demonstration page uses our WeatherBlox Daily Observations layout. Learn more.

Left ArrowRight Arrow

Hourly Observations for June 19, 2016

Temp ( °F °C ) Dew Point ( °F °C ) Humidity (%) Winds ( mph kmh ) Pressure ( in mb ) Visibility ( mi km ) Precip ( " mm )
12:53 am 00:53 Clear 62 16.7 51 10.6 67 67 N 3 6 30.11 1020 10 16 0.00 0.00
1:53 am 01:53 Clear 62 16.7 48 8.9 60 60 NNW 7 11 30.10 1019 10 16 0.00 0.00
2:53 am 02:53 Clear 62 16.7 47 8.3 58 58 NW 6 9 30.10 1019 10 16 0.00 0.00
3:53 am 03:53 Clear 63 17.2 44 6.7 50 50 NNW 7 11 30.09 1019 10 16 0.00 0.00
4:53 am 04:53 Clear 62 16.7 44 6.7 52 52 NNW 5 7 30.08 1019 10 16 0.00 0.00
5:53 am 05:53 Sunny 60 15.6 45 7.2 58 58 NNW 6 9 30.08 1019 10 16 0.00 0.00
6:53 am 06:53 Sunny 66 18.9 42 5.6 42 42 NNW 8 13 30.08 1019 10 16 0.00 0.00
7:53 am 07:53 Sunny 70 21.1 41 5 35 35 N 12 19 30.09 1019 10 16 0.00 0.00
8:53 am 08:53 Sunny 73 22.8 42 5.6 33 33 N 12 19 30.08 1019 10 16 0.00 0.00
9:53 am 09:53 Sunny 76 24.4 41 5 29 29 N 12 19 30.07 1018 10 16 0.00 0.00
10:53 am 10:53 Sunny 79 26.1 44 6.7 29 29 N 9 15 30.05 1018 10 16 0.00 0.00
11:53 am 11:53 Sunny 82 27.8 42 5.6 24 24 VRB 3 6 30.04 1017 10 16 0.00 0.00
12:53 pm 12:53 Sunny 84 28.9 44 6.7 25 25 VRB 5 7 30.03 1017 10 16 0.00 0.00
1:53 pm 13:53 Sunny 86 30 45 7.2 24 24 ESE 8 13 30.01 1016 10 16 0.00 0.00
2:53 pm 14:53 Sunny 86 30 40 4.4 20 20 VRB 6 9 29.99 1016 10 16 0.00 0.00
3:53 pm 15:53 Sunny 88 31.1 26 -3.3 10 10 Calm 29.98 1015 10 16 0.00 0.00
4:53 pm 16:53 Sunny 89 31.7 24 -4.4 9 9 SSW 8 13 29.95 1014 10 16 0.00 0.00
5:53 pm 17:53 Sunny 88 31.1 27 -2.8 11 11 SSW 10 17 29.95 1014 10 16 0.00 0.00
6:53 pm 18:53 Sunny 88 31.1 30 -1.1 12 12 S 14 22 29.94 1014 10 16 0.00 0.00
7:53 pm 19:53 Sunny 85 29.4 33 0.6 15 15 SSW 9 15 29.94 1014 10 16 0.00 0.00
8:53 pm 20:53 Clear 81 27.2 39 3.9 22 22 SSW 6 9 29.95 1014 10 16 0.00 0.00
9:53 pm 21:53 Clear 72 22.2 45 7.2 38 38 ENE 3 6 29.97 1015 10 16 0.00 0.00
10:53 pm 22:53 Clear 67 19.4 48 8.9 51 51 N 3 6 29.98 1015 10 16 0.00 0.00
11:53 pm 23:53 Clear 65 18.3 50 10 59 59 N 5 7 29.99 1016 10 16 0.00 0.00

Powered by AerisWeather